Weather History for Orr, MN

Change the Weather History Date:

Thursday, September 6, 2012

  Actual Average Record
Temperature  
Mean Temperature 55 °F -  
Max Temperature 64 °F 70 °F 84 °F (2013)
Min Temperature 46 °F 48 °F 0 °F (1996)
Degree Days  
Heating Degree Days 10    
Growing Degree Days 5 (Base 50)    
Moisture  
Dew Point 48 °F    
Average Humidity 78    
Maximum Humidity 94    
Minimum Humidity 55    
Precipitation  
Precipitation 0.00 in - - ()
Sea Level Pressure  
Sea Level Pressure 29.87 in    
Wind  
Wind Speed 1 mph (West)    
Max Wind Speed 9 mph    
Max Gust Speed 16 mph    
Visibility 10 miles    
Events Rain    
Averages and records for this station are not official NWS values.
T = Trace of Precipitation, MM = Missing Value Source: NWS Daily Summary

Daily Weather History Graph

Daily Weather History Graph

Search for Another Location

Airport:

Trip Planner

Search our weather history database for the weather conditions in past years. The results will help you decide how hot, cold, wet, or windy it might be!

Date:

Astronomy

Sep. 06, 2012 Rise Set
Actual Time 6:36 AM CDT 7:41 PM CDT
Civil Twilight 6:05 AM CDT 8:12 PM CDT
Nautical Twilight 5:26 AM CDT 8:50 PM CDT
Astronomical Twilight 4:46 AM CDT 9:31 PM CDT
Moon 10:20 PM CDT (9/6) 1:07 PM CDT (9/6)
Length of Visible Light 14h 07m
Length of Day
13h 04m
Waning Gibbous, 67% of the Moon is Illuminated
Sep 6
Waning Gibbous
Sep 8
Last Quarter
Sep 15
New
Sep 22
First Quarter
Sep 29
Full

Hourly Weather History & Observations

Time (CDT) Temp. Dew Point Humidity Pressure Visibility Wind Dir Wind Speed Gust Speed Precip Events Conditions
12:13 AM 55.4 °F 46.4 °F 72% 29.81 in 10.0 mi Calm Calm - N/A   Mostly Cloudy
12:17 AM 55.4 °F 46.4 °F 72% 29.81 in 10.0 mi Calm Calm - N/A   Mostly Cloudy
12:33 AM 57.2 °F 46.4 °F 67% 29.81 in 10.0 mi Calm Calm - N/A   Overcast
12:37 AM 57.2 °F 46.4 °F 67% 29.81 in 10.0 mi Calm Calm - N/A   Overcast
12:53 AM 55.4 °F 46.4 °F 72% 29.82 in 10.0 mi Calm Calm - N/A   Overcast
12:57 AM 55.4 °F 46.4 °F 72% 29.82 in 10.0 mi Calm Calm - N/A   Overcast
1:13 AM 55.4 °F 46.4 °F 72% 29.82 in 10.0 mi Calm Calm - N/A   Overcast
1:17 AM 55.4 °F 46.4 °F 72% 29.82 in 10.0 mi Calm Calm - N/A   Overcast
1:33 AM 55.4 °F 46.4 °F 72% 29.82 in 10.0 mi Calm Calm - N/A   Mostly Cloudy
1:37 AM 55.4 °F 46.4 °F 72% 29.82 in 10.0 mi Calm Calm - N/A   Mostly Cloudy
1:53 AM 53.6 °F 46.4 °F 77% 29.83 in 10.0 mi Calm Calm - N/A   Mostly Cloudy
1:57 AM 53.6 °F 46.4 °F 77% 29.83 in 10.0 mi Calm Calm - N/A   Mostly Cloudy
2:13 AM 51.8 °F 46.4 °F 82% 29.83 in 10.0 mi Calm Calm - N/A   Scattered Clouds
2:17 AM 51.8 °F 46.4 °F 82% 29.83 in 10.0 mi Calm Calm - N/A   Scattered Clouds
2:33 AM 51.8 °F 46.4 °F 82% 29.83 in 10.0 mi Calm Calm - N/A   Scattered Clouds
2:37 AM 51.8 °F 46.4 °F 82% 29.83 in 10.0 mi Calm Calm - N/A   Scattered Clouds
2:53 AM 51.8 °F 46.4 °F 82% 29.83 in 10.0 mi Calm Calm - N/A   Clear
2:57 AM 51.8 °F 46.4 °F 82% 29.83 in 10.0 mi Calm Calm - N/A   Scattered Clouds
3:13 AM 51.8 °F 46.4 °F 82% 29.83 in 10.0 mi Calm Calm - N/A   Mostly Cloudy
3:17 AM 51.8 °F 46.4 °F 82% 29.83 in 10.0 mi Calm Calm - N/A   Mostly Cloudy
3:33 AM 51.8 °F 46.4 °F 82% 29.84 in 10.0 mi Calm Calm - N/A   Mostly Cloudy
3:37 AM 51.8 °F 46.4 °F 82% 29.84 in 10.0 mi Calm Calm - N/A   Scattered Clouds
3:53 AM 51.8 °F 46.4 °F 82% 29.84 in 10.0 mi Calm Calm - N/A   Scattered Clouds
3:57 AM 51.8 °F 48.2 °F 88% 29.84 in 10.0 mi Calm Calm - N/A   Mostly Cloudy
4:13 AM 51.8 °F 46.4 °F 82% 29.84 in 10.0 mi Calm Calm - N/A   Mostly Cloudy
4:17 AM 51.8 °F 46.4 °F 82% 29.84 in 10.0 mi Calm Calm - N/A   Scattered Clouds
4:34 AM 48.2 °F 46.4 °F 93% 29.85 in 10.0 mi Calm Calm - N/A   Scattered Clouds
4:37 AM 48.2 °F 46.4 °F 93% 29.85 in 10.0 mi Calm Calm - N/A   Scattered Clouds
4:53 AM 50.0 °F 46.4 °F 87% 29.85 in 10.0 mi Calm Calm - N/A   Mostly Cloudy
4:57 AM 50.0 °F 46.4 °F 87% 29.85 in 10.0 mi Calm Calm - N/A   Mostly Cloudy
5:13 AM 48.2 °F 46.4 °F 93% 29.85 in 10.0 mi Calm Calm - N/A   Scattered Clouds
5:17 AM 48.2 °F 46.4 °F 93% 29.85 in 10.0 mi Calm Calm - N/A   Scattered Clouds
5:33 AM 48.2 °F 46.4 °F 93% 29.85 in 10.0 mi Calm Calm - N/A   Clear
5:37 AM 48.2 °F 46.4 °F 93% 29.85 in 10.0 mi Calm Calm - N/A   Clear
5:53 AM 48.2 °F 44.6 °F 87% 29.85 in 10.0 mi Calm Calm - N/A   Clear
5:57 AM 48.2 °F 44.6 °F 87% 29.85 in 10.0 mi Calm Calm - N/A   Clear
6:13 AM 46.4 °F 44.6 °F 93% 29.86 in 10.0 mi Calm Calm - N/A   Clear
6:17 AM 46.4 °F 44.6 °F 93% 29.86 in 10.0 mi Calm Calm - N/A   Clear
6:33 AM 46.4 °F 44.6 °F 93% 29.86 in 10.0 mi Calm Calm - N/A   Clear
6:37 AM 46.4 °F 44.6 °F 93% 29.86 in 10.0 mi Calm Calm - N/A   Clear
6:53 AM 46.4 °F 44.6 °F 93% 29.87 in 10.0 mi Calm Calm - N/A   Clear
6:57 AM 46.4 °F 44.6 °F 93% 29.87 in 10.0 mi Calm Calm - N/A   Clear
7:13 AM 46.4 °F 44.6 °F 93% 29.88 in 10.0 mi Calm Calm - N/A   Clear
7:17 AM 46.4 °F 44.6 °F 93% 29.88 in 10.0 mi Calm Calm - N/A   Clear
7:33 AM 46.4 °F 44.6 °F 93% 29.88 in 10.0 mi Calm Calm - N/A   Clear
7:37 AM 46.4 °F 44.6 °F 93% 29.88 in 10.0 mi Calm Calm - N/A   Clear
7:53 AM 48.2 °F 46.4 °F 93% 29.88 in 10.0 mi Calm Calm - N/A   Clear
7:57 AM 48.2 °F 46.4 °F 93% 29.88 in 10.0 mi Calm Calm - N/A   Clear
8:13 AM 51.8 °F 48.2 °F 88% 29.88 in 10.0 mi Calm Calm - N/A   Scattered Clouds
8:17 AM 51.8 °F 48.2 °F 88% 29.88 in 10.0 mi Calm Calm - N/A   Mostly Cloudy
8:34 AM 53.6 °F 48.2 °F 82% 29.88 in 10.0 mi Calm Calm - N/A   Mostly Cloudy
8:53 AM 55.4 °F 48.2 °F 77% 29.88 in 10.0 mi Calm Calm - N/A   Mostly Cloudy
8:57 AM 55.4 °F 50.0 °F 82% 29.88 in 10.0 mi Calm Calm - N/A   Mostly Cloudy
9:13 AM 57.2 °F 48.2 °F 72% 29.88 in 10.0 mi Calm Calm - N/A   Mostly Cloudy
9:17 AM 57.2 °F 48.2 °F 72% 29.88 in 10.0 mi Calm Calm - N/A   Mostly Cloudy
9:37 AM 57.2 °F 48.2 °F 72% 29.89 in 10.0 mi Calm Calm - N/A   Mostly Cloudy
9:53 AM 59.0 °F 50.0 °F 72% 29.89 in 10.0 mi Calm Calm - N/A   Scattered Clouds
9:57 AM 59.0 °F 50.0 °F 72% 29.88 in 10.0 mi Calm Calm - N/A   Scattered Clouds
10:13 AM 60.8 °F 48.2 °F 63% 29.89 in 10.0 mi Calm Calm - N/A   Clear
10:18 AM 60.8 °F 48.2 °F 63% 29.88 in 10.0 mi Calm Calm - N/A   Clear
10:33 AM 60.8 °F 46.4 °F 59% 29.89 in 10.0 mi NW 3.5 mph - N/A   Clear
10:37 AM 62.6 °F 46.4 °F 55% 29.89 in 10.0 mi Calm Calm - N/A   Clear
10:53 AM 62.6 °F 48.2 °F 59% 29.89 in 10.0 mi Calm Calm - N/A   Clear
11:14 AM 62.6 °F 46.4 °F 55% 29.90 in 10.0 mi Calm Calm - N/A   Scattered Clouds
11:17 AM 62.6 °F 46.4 °F 55% 29.90 in 10.0 mi Calm Calm - N/A   Scattered Clouds
11:33 AM 60.8 °F 50.0 °F 68% 29.91 in 10.0 mi WSW 3.5 mph - N/A   Light Drizzle
11:37 AM 60.8 °F 50.0 °F 68% 29.91 in 10.0 mi West 4.6 mph - N/A Rain Light Rain
11:53 AM 59.0 °F 48.2 °F 67% 29.92 in 10.0 mi West 6.9 mph - N/A   Drizzle
11:57 AM 59.0 °F 50.0 °F 72% 29.91 in 10.0 mi West 5.8 mph - N/A   Drizzle
12:13 PM 59.0 °F 48.2 °F 67% 29.91 in 10.0 mi Calm Calm - N/A   Light Drizzle
12:17 PM 60.8 °F 48.2 °F 63% 29.91 in 10.0 mi WNW 5.8 mph - N/A   Light Drizzle
12:33 PM 59.0 °F 48.2 °F 67% 29.91 in 10.0 mi WNW 5.8 mph - N/A   Mostly Cloudy
12:37 PM 59.0 °F 48.2 °F 67% 29.91 in 10.0 mi Calm Calm - N/A   Scattered Clouds
12:53 PM 57.2 °F 48.2 °F 72% 29.91 in 10.0 mi Calm Calm - N/A   Scattered Clouds
12:57 PM 57.2 °F 48.2 °F 72% 29.91 in 10.0 mi Calm Calm - N/A   Mostly Cloudy
1:13 PM 57.2 °F 50.0 °F 77% 29.91 in 10.0 mi Calm Calm - N/A Rain Rain
1:17 PM 57.2 °F 50.0 °F 77% 29.91 in 10.0 mi Calm Calm - N/A Rain Light Rain
1:33 PM 57.2 °F 48.2 °F 72% 29.91 in 10.0 mi Calm Calm - N/A Rain Light Rain
1:37 PM 57.2 °F 48.2 °F 72% 29.91 in 10.0 mi Calm Calm - N/A Rain Light Rain
1:53 PM 57.2 °F 48.2 °F 72% 29.90 in 10.0 mi Calm Calm - N/A Rain Light Rain
1:57 PM 57.2 °F 48.2 °F 72% 29.90 in 10.0 mi Calm Calm - N/A   Scattered Clouds
2:13 PM 59.0 °F 50.0 °F 72% 29.89 in 10.0 mi Calm Calm - N/A   Scattered Clouds
2:17 PM 59.0 °F 50.0 °F 72% 29.90 in 10.0 mi WSW 3.5 mph - N/A   Scattered Clouds
2:33 PM 60.8 °F 50.0 °F 68% 29.90 in 10.0 mi WNW 5.8 mph - N/A   Scattered Clouds
2:37 PM 60.8 °F 51.8 °F 72% 29.89 in 10.0 mi West 8.1 mph - N/A   Scattered Clouds
2:53 PM 60.8 °F 50.0 °F 68% 29.89 in 10.0 mi WNW 9.2 mph - N/A   Scattered Clouds
2:57 PM 59.0 °F 50.0 °F 72% 29.89 in 10.0 mi West 5.8 mph - N/A   Scattered Clouds
3:13 PM 59.0 °F 50.0 °F 72% 29.88 in 10.0 mi West 6.9 mph - N/A   Mostly Cloudy
3:17 PM 60.8 °F 50.0 °F 68% 29.88 in 10.0 mi Calm Calm - N/A   Mostly Cloudy
3:33 PM 60.8 °F 50.0 °F 68% 29.88 in 10.0 mi Calm Calm - N/A   Scattered Clouds
3:37 PM 60.8 °F 51.8 °F 72% 29.88 in 10.0 mi Calm Calm - N/A   Scattered Clouds
3:54 PM 62.6 °F 50.0 °F 63% 29.87 in 10.0 mi WNW 5.8 mph - N/A   Scattered Clouds
3:57 PM 62.6 °F 48.2 °F 59% 29.87 in 10.0 mi West 6.9 mph - N/A   Scattered Clouds
4:13 PM 62.6 °F 50.0 °F 63% 29.87 in 10.0 mi West 6.9 mph - N/A   Scattered Clouds
4:17 PM 64.4 °F 50.0 °F 59% 29.88 in 10.0 mi WSW 9.2 mph - N/A   Scattered Clouds
4:33 PM 62.6 °F 48.2 °F 59% 29.87 in 10.0 mi West 8.1 mph 16.1 mph N/A   Clear
4:37 PM 62.6 °F 48.2 °F 59% 29.87 in 10.0 mi West 6.9 mph - N/A   Scattered Clouds
4:53 PM 60.8 °F 48.2 °F 63% 29.87 in 10.0 mi West 6.9 mph - N/A   Scattered Clouds
4:57 PM 60.8 °F 48.2 °F 63% 29.87 in 10.0 mi WSW 4.6 mph - N/A   Scattered Clouds
5:13 PM 60.8 °F 48.2 °F 63% 29.87 in 10.0 mi West 6.9 mph - N/A   Scattered Clouds
5:17 PM 60.8 °F 48.2 °F 63% 29.87 in 10.0 mi West 3.5 mph - N/A   Scattered Clouds
5:33 PM 62.6 °F 50.0 °F 63% 29.87 in 10.0 mi West 3.5 mph - N/A   Clear
5:37 PM 60.8 °F 48.2 °F 63% 29.87 in 10.0 mi West 4.6 mph - N/A   Clear
5:53 PM 60.8 °F 48.2 °F 63% 29.87 in 10.0 mi Calm Calm - N/A   Clear
5:57 PM 60.8 °F 50.0 °F 68% 29.87 in 10.0 mi Calm Calm - N/A   Clear
6:13 PM 60.8 °F 50.0 °F 68% 29.87 in 10.0 mi Calm Calm - N/A   Mostly Cloudy
6:17 PM 60.8 °F 50.0 °F 68% 29.87 in 10.0 mi Calm Calm - N/A   Mostly Cloudy
6:33 PM 59.0 °F 51.8 °F 77% 29.89 in 10.0 mi Calm Calm - N/A Rain Light Rain
6:37 PM 59.0 °F 51.8 °F 77% 29.89 in 10.0 mi Calm Calm - N/A Rain Rain
6:53 PM 57.2 °F 51.8 °F 82% 29.88 in 10.0 mi Calm Calm - N/A Rain Light Rain
6:57 PM 57.2 °F 51.8 °F 82% 29.88 in 10.0 mi Calm Calm - N/A   Mostly Cloudy
7:13 PM 57.2 °F 51.8 °F 82% 29.88 in 10.0 mi Calm Calm - N/A Rain Rain
7:17 PM 55.4 °F 51.8 °F 88% 29.88 in 10.0 mi Calm Calm - N/A Rain Light Rain
7:33 PM 55.4 °F 51.8 °F 88% 29.89 in 10.0 mi Calm Calm - N/A Rain Light Rain
7:37 PM 55.4 °F 51.8 °F 88% 29.89 in 10.0 mi Calm Calm - N/A Rain Light Rain
7:53 PM 55.4 °F 50.0 °F 82% 29.89 in 10.0 mi WSW 3.5 mph - N/A   Light Drizzle
7:57 PM 53.6 °F 50.0 °F 88% 29.89 in 10.0 mi Calm Calm - N/A   Light Drizzle
8:13 PM 53.6 °F 50.0 °F 88% 29.89 in 10.0 mi Calm Calm - N/A   Scattered Clouds
8:17 PM 53.6 °F 50.0 °F 88% 29.89 in 10.0 mi Calm Calm - N/A   Scattered Clouds
8:33 PM 51.8 °F 48.2 °F 88% 29.89 in 10.0 mi Calm Calm - N/A   Scattered Clouds
8:37 PM 51.8 °F 48.2 °F 88% 29.89 in 10.0 mi Calm Calm - N/A   Scattered Clouds
8:53 PM 51.8 °F 48.2 °F 88% 29.90 in 10.0 mi Calm Calm - N/A   Scattered Clouds
8:57 PM 51.8 °F 48.2 °F 88% 29.90 in 10.0 mi Calm Calm - N/A   Scattered Clouds
9:13 PM 51.8 °F 48.2 °F 88% 29.90 in 10.0 mi Calm Calm - N/A   Scattered Clouds
9:17 PM 51.8 °F 48.2 °F 88% 29.90 in 10.0 mi Calm Calm - N/A   Scattered Clouds
9:33 PM 51.8 °F 48.2 °F 88% 29.90 in 10.0 mi Calm Calm - N/A   Scattered Clouds
9:37 PM 51.8 °F 48.2 °F 88% 29.90 in 10.0 mi Calm Calm - N/A   Scattered Clouds
9:53 PM 51.8 °F 48.2 °F 88% 29.90 in 10.0 mi Calm Calm - N/A   Scattered Clouds
9:57 PM 51.8 °F 48.2 °F 88% 29.90 in 10.0 mi Calm Calm - N/A   Scattered Clouds
10:13 PM 53.6 °F 50.0 °F 88% 29.90 in 10.0 mi Calm Calm - N/A   Mostly Cloudy
10:17 PM 53.6 °F 50.0 °F 88% 29.90 in 10.0 mi Calm Calm - N/A   Overcast
10:33 PM 53.6 °F 50.0 °F 88% 29.90 in 10.0 mi Calm Calm - N/A   Scattered Clouds
10:37 PM 53.6 °F 50.0 °F 88% 29.90 in 10.0 mi Calm Calm - N/A   Scattered Clouds
10:53 PM 53.6 °F 50.0 °F 88% 29.90 in 10.0 mi Calm Calm - N/A   Clear
11:13 PM 51.8 °F 50.0 °F 94% 29.90 in 10.0 mi Calm Calm - N/A   Clear
11:17 PM 51.8 °F 50.0 °F 94% 29.90 in 10.0 mi Calm Calm - N/A   Clear
11:33 PM 51.8 °F 48.2 °F 88% 29.90 in 10.0 mi Calm Calm - N/A   Clear
11:37 PM 51.8 °F 48.2 °F 88% 29.90 in 10.0 mi Calm Calm - N/A   Clear
11:53 PM 51.8 °F 48.2 °F 88% 29.90 in 10.0 mi Calm Calm - N/A   Clear
11:57 PM 51.8 °F 48.2 °F 88% 29.91 in 10.0 mi Calm Calm - N/A   Clear